XLE951 DNYO-FPST

Flight info

Callsign XLE951
Flight time N/A
Altitude 34000
Route INIGO UG857 DLA UB737 IPOTA
Aircraft B738/M-SDE2E3FGHIRWXY/LB1

Departure

Time 2026-04-21 14:25
Airport Yola Airport (DNYO)

Arrival

Time N/A
Airport São Tomé International Airport (FPST)
Time Latitude Longitude Altitude Speed Heading
2026-04-21 14:06 9.26780 12.42643 598 ft 0 kts 140°
2026-04-21 14:20 9.26779 12.42644 596 ft 2 kts 140°
2026-04-21 14:21 9.26777 12.42665 598 ft 4 kts 72°
2026-04-21 14:21 9.26797 12.42710 603 ft 11 kts 67°
2026-04-21 14:21 9.26824 12.42820 603 ft 21 kts 77°
2026-04-21 14:21 9.26894 12.42851 603 ft 10 kts 351°
2026-04-21 14:22 9.26904 12.42850 604 ft 10 kts 351°
2026-04-21 14:22 9.26968 12.42839 605 ft 10 kts 351°
2026-04-21 14:22 9.26978 12.42837 606 ft 10 kts 350°
2026-04-21 14:22 9.27001 12.42832 606 ft 11 kts 341°
2026-04-21 14:23 9.27018 12.42822 606 ft 11 kts 327°
2026-04-21 14:23 9.27026 12.42816 606 ft 11 kts 321°
2026-04-21 14:23 9.27082 12.42802 607 ft 3 kts 53°
2026-04-21 14:23 9.27071 12.42819 607 ft 4 kts 149°
2026-04-21 14:24 9.27054 12.42823 607 ft 0 kts 167°
2026-04-21 14:24 9.27053 12.42823 607 ft 0 kts 168°
2026-04-21 14:24 9.26992 12.42834 606 ft 37 kts 171°
2026-04-21 14:25 9.26479 12.42920 606 ft 110 kts 170°
2026-04-21 14:25 9.25504 12.43087 619 ft 170 kts 169°
2026-04-21 14:25 9.24249 12.43295 1064 ft 190 kts 171°
2026-04-21 14:25 9.22823 12.43416 1428 ft 223 kts 183°
2026-04-21 14:26 9.21197 12.43219 1782 ft 244 kts 188°
2026-04-21 14:26 9.19495 12.42940 2416 ft 252 kts 188°
2026-04-21 14:26 9.17698 12.42646 2786 ft 269 kts 188°
2026-04-21 14:26 9.16894 12.42521 3004 ft 273 kts 188°
2026-04-21 14:27 9.15410 12.42301 3488 ft 276 kts 187°
2026-04-21 14:27 9.13501 12.42031 4154 ft 278 kts 187°
2026-04-21 14:27 9.11574 12.41770 4781 ft 281 kts 186°
2026-04-21 14:27 9.09630 12.41516 5474 ft 283 kts 186°
2026-04-21 14:28 9.07687 12.41273 6131 ft 285 kts 186°
2026-04-21 14:28 9.05706 12.41029 6732 ft 289 kts 185°
2026-04-21 14:28 9.03705 12.40785 7410 ft 291 kts 185°
2026-04-21 14:28 9.01683 12.40542 7998 ft 295 kts 185°
2026-04-21 14:29 8.99632 12.40297 8604 ft 298 kts 185°
2026-04-21 14:29 8.97554 12.40051 9202 ft 302 kts 185°
2026-04-21 14:29 8.95459 12.39802 9845 ft 304 kts 184°
2026-04-21 14:29 8.93313 12.39550 10135 ft 320 kts 184°
2026-04-21 14:30 8.91030 12.39284 10278 ft 339 kts 184°
2026-04-21 14:30 8.88624 12.39003 10410 ft 357 kts 184°
2026-04-21 14:30 8.86108 12.38707 10661 ft 370 kts 184°
2026-04-21 14:30 8.83537 12.38404 11162 ft 373 kts 184°
2026-04-21 14:31 8.80961 12.38100 11772 ft 373 kts 184°
2026-04-21 14:31 8.78372 12.37794 12325 ft 375 kts 184°
2026-04-21 14:31 8.75772 12.37487 12844 ft 379 kts 184°
2026-04-21 14:31 8.73171 12.37181 13361 ft 381 kts 184°
2026-04-21 14:32 8.70530 12.36870 13849 ft 383 kts 184°
2026-04-21 14:32 8.67874 12.36557 14321 ft 385 kts 184°
2026-04-21 14:32 8.65202 12.36244 14773 ft 388 kts 184°
2026-04-21 14:32 8.62509 12.35928 15245 ft 390 kts 184°
2026-04-21 14:33 8.59806 12.35611 15689 ft 392 kts 184°
2026-04-21 14:33 8.57083 12.35292 16125 ft 395 kts 184°
2026-04-21 14:33 8.54336 12.34969 16572 ft 397 kts 184°
2026-04-21 14:33 8.51589 12.34647 17009 ft 399 kts 184°
2026-04-21 14:34 8.48851 12.34325 17431 ft 401 kts 184°
2026-04-21 14:34 8.46058 12.33997 17860 ft 404 kts 184°
2026-04-21 14:34 8.43255 12.33667 18219 ft 407 kts 184°
2026-04-21 14:34 8.40428 12.33336 18584 ft 408 kts 184°
2026-04-21 14:35 8.37660 12.33012 18928 ft 410 kts 184°
2026-04-21 14:35 8.34853 12.32683 19266 ft 412 kts 184°
2026-04-21 14:35 8.31998 12.32349 19605 ft 414 kts 184°
2026-04-21 14:35 8.29132 12.32013 19945 ft 416 kts 184°
2026-04-21 14:36 8.26532 12.31708 20240 ft 418 kts 184°
2026-04-21 14:37 8.23787 12.31387 20555 ft 419 kts 184°
2026-04-21 14:37 8.20885 12.31046 20900 ft 420 kts 184°
2026-04-21 14:37 8.17973 12.30705 21213 ft 422 kts 184°
2026-04-21 14:38 8.15043 12.30362 21513 ft 425 kts 184°
2026-04-21 14:38 8.12099 12.30017 21790 ft 427 kts 184°
2026-04-21 14:38 8.09137 12.29670 22090 ft 429 kts 184°
2026-04-21 14:38 8.06171 12.29323 22399 ft 430 kts 184°
2026-04-21 14:39 8.03195 12.28955 22679 ft 433 kts 187°
2026-04-21 14:39 8.00263 12.28208 22969 ft 437 kts 197°
2026-04-21 14:39 7.97455 12.27003 23263 ft 441 kts 206°
2026-04-21 14:39 7.94848 12.25398 23494 ft 444 kts 211°
2026-04-21 14:40 7.92258 12.23686 23709 ft 446 kts 212°
2026-04-21 14:40 7.89663 12.21943 23927 ft 448 kts 212°
2026-04-21 14:40 7.87059 12.20197 24144 ft 449 kts 212°
2026-04-21 14:40 7.84448 12.18457 24370 ft 451 kts 212°
2026-04-21 14:41 7.81819 12.16718 24599 ft 452 kts 212°
2026-04-21 14:41 7.79176 12.14980 24797 ft 454 kts 212°
2026-04-21 14:41 7.76558 12.13265 24985 ft 456 kts 212°
2026-04-21 14:41 7.73889 12.11519 25184 ft 458 kts 212°
2026-04-21 14:42 7.71210 12.09769 25394 ft 459 kts 213°
2026-04-21 14:42 7.68523 12.08014 25600 ft 461 kts 213°
2026-04-21 14:42 7.65832 12.06256 25806 ft 462 kts 213°
2026-04-21 14:42 7.63123 12.04486 26006 ft 463 kts 214°
2026-04-21 14:43 7.60411 12.02715 26185 ft 465 kts 214°
2026-04-21 14:43 7.57695 12.00941 26384 ft 466 kts 214°
2026-04-21 14:43 7.54973 11.99163 26627 ft 467 kts 214°
2026-04-21 14:43 7.52248 11.97384 26828 ft 468 kts 214°
2026-04-21 14:44 7.49502 11.95592 27006 ft 469 kts 214°
2026-04-21 14:44 7.46759 11.93801 27192 ft 471 kts 214°
2026-04-21 14:44 7.44009 11.92006 27358 ft 472 kts 214°
2026-04-21 14:44 7.41271 11.90219 27548 ft 473 kts 215°
2026-04-21 14:45 7.38510 11.88418 27724 ft 474 kts 215°
2026-04-21 14:45 7.35735 11.86607 27921 ft 475 kts 215°
2026-04-21 14:45 7.32956 11.84794 28052 ft 477 kts 215°
2026-04-21 14:45 7.30167 11.82975 28206 ft 478 kts 215°
2026-04-21 14:46 7.27367 11.81149 28365 ft 479 kts 216°
2026-04-21 14:46 7.24571 11.79326 28530 ft 480 kts 216°
2026-04-21 14:46 7.21763 11.77495 28681 ft 481 kts 216°
2026-04-21 14:46 7.18948 11.75660 28837 ft 482 kts 216°
2026-04-21 14:47 7.16125 11.73820 28990 ft 484 kts 216°
2026-04-21 14:47 7.13299 11.71979 29138 ft 485 kts 216°
2026-04-21 14:47 7.10459 11.70129 29292 ft 485 kts 216°
2026-04-21 14:47 7.07621 11.68281 29524 ft 485 kts 217°
2026-04-21 14:48 7.04827 11.66462 29774 ft 484 kts 217°
2026-04-21 14:48 7.02000 11.64622 29987 ft 483 kts 217°
2026-04-21 14:48 6.99180 11.62786 30170 ft 482 kts 217°
2026-04-21 14:48 6.96361 11.60951 30385 ft 481 kts 217°
2026-04-21 14:49 6.93553 11.59123 30604 ft 480 kts 217°
2026-04-21 14:49 6.90752 11.57301 30819 ft 479 kts 217°
2026-04-21 14:49 6.87955 11.55480 31025 ft 478 kts 217°
2026-04-21 14:49 6.85152 11.53656 31227 ft 477 kts 217°
2026-04-21 14:50 6.83305 11.52455 31369 ft 477 kts 216°
2026-04-21 14:50 6.79617 11.50055 31647 ft 475 kts 216°
2026-04-21 14:50 6.76840 11.48249 31853 ft 475 kts 216°
2026-04-21 14:50 6.74072 11.46449 32082 ft 473 kts 216°
2026-04-21 14:51 6.71308 11.44652 32297 ft 472 kts 216°
2026-04-21 14:51 6.68545 11.42855 32494 ft 472 kts 216°
2026-04-21 14:51 6.65793 11.41066 32697 ft 471 kts 216°
2026-04-21 14:51 6.63043 11.39278 32900 ft 470 kts 216°
2026-04-21 14:52 6.60295 11.37492 33113 ft 469 kts 216°
2026-04-21 14:52 6.57556 11.35712 33314 ft 468 kts 216°
2026-04-21 14:52 6.54817 11.33931 33491 ft 468 kts 216°
2026-04-21 14:52 6.52081 11.32154 33689 ft 468 kts 216°
2026-04-21 14:53 6.49376 11.30397 33832 ft 467 kts 216°
2026-04-21 14:53 6.43909 11.26852 33838 ft 468 kts 216°
2026-04-21 14:54 6.38438 11.23306 33839 ft 467 kts 216°
2026-04-21 14:54 6.32963 11.19756 33839 ft 467 kts 216°
2026-04-21 14:55 6.27491 11.16209 33837 ft 468 kts 216°
2026-04-21 14:55 6.22052 11.12683 33840 ft 468 kts 216°
2026-04-21 14:56 6.16564 11.09127 33839 ft 469 kts 216°
2026-04-21 14:56 6.11989 11.06163 33841 ft 469 kts 215°
2026-04-21 14:57 6.05605 11.02028 33844 ft 469 kts 215°
2026-04-21 14:57 6.01006 10.99051 33845 ft 470 kts 215°
2026-04-21 14:58 5.95537 10.95510 33839 ft 470 kts 215°
2026-04-21 14:58 5.90033 10.91948 33850 ft 470 kts 215°
2026-04-21 14:59 5.84523 10.88382 33842 ft 470 kts 214°
2026-04-21 14:59 5.79019 10.84821 33847 ft 470 kts 214°
2026-04-21 15:00 5.73519 10.81264 33851 ft 470 kts 214°
2026-04-21 15:00 5.68016 10.77705 33852 ft 470 kts 214°
2026-04-21 15:01 5.62509 10.74155 33851 ft 470 kts 214°
2026-04-21 15:01 5.56964 10.70675 33863 ft 470 kts 214°
2026-04-21 15:02 5.51439 10.67234 33861 ft 471 kts 214°
2026-04-21 15:02 5.45863 10.63751 33863 ft 470 kts 214°
2026-04-21 15:03 5.40342 10.60296 33868 ft 470 kts 214°
2026-04-21 15:03 5.34778 10.56810 33875 ft 470 kts 214°
2026-04-21 15:04 5.29225 10.53333 33870 ft 470 kts 214°
2026-04-21 15:04 5.23662 10.49850 33871 ft 471 kts 214°
2026-04-21 15:05 5.18129 10.46387 33871 ft 471 kts 214°
2026-04-21 15:05 5.09768 10.41156 33863 ft 472 kts 214°
2026-04-21 15:06 5.04198 10.37672 33860 ft 472 kts 214°
2026-04-21 15:06 4.98619 10.34183 33848 ft 472 kts 214°
2026-04-21 15:07 4.93040 10.30694 33849 ft 473 kts 213°
2026-04-21 15:07 4.87454 10.27202 33841 ft 473 kts 213°
2026-04-21 15:08 4.81854 10.23702 33835 ft 474 kts 213°
2026-04-21 15:08 4.76286 10.20221 33827 ft 474 kts 213°
2026-04-21 15:09 4.70681 10.16720 33822 ft 474 kts 212°
2026-04-21 15:09 4.65082 10.13222 33822 ft 474 kts 212°
2026-04-21 15:10 4.59473 10.09720 33814 ft 474 kts 212°
2026-04-21 15:10 4.53870 10.06221 33806 ft 474 kts 212°
2026-04-21 15:11 4.48274 10.02726 33807 ft 473 kts 212°
2026-04-21 15:11 4.42693 9.99242 33800 ft 472 kts 212°
2026-04-21 15:12 4.37141 9.95776 33795 ft 471 kts 212°
2026-04-21 15:12 4.31505 9.92405 33798 ft 470 kts 209°
2026-04-21 15:13 4.25793 9.89224 33790 ft 469 kts 209°
2026-04-21 15:13 4.20127 9.86054 33786 ft 469 kts 209°
2026-04-21 15:14 4.14443 9.82836 33779 ft 468 kts 209°
2026-04-21 15:14 4.08780 9.79621 33774 ft 467 kts 210°
2026-04-21 15:15 4.03158 9.76432 33777 ft 466 kts 210°
2026-04-21 15:15 3.97665 9.72983 33766 ft 466 kts 219°
2026-04-21 15:16 3.92698 9.68810 33773 ft 466 kts 221°
2026-04-21 15:16 3.87766 9.64580 33778 ft 467 kts 220°
2026-04-21 15:17 3.82808 9.60373 33785 ft 468 kts 220°
2026-04-21 15:17 3.77843 9.56195 33784 ft 469 kts 220°
2026-04-21 15:18 3.72830 9.51989 33795 ft 470 kts 220°
2026-04-21 15:18 3.67808 9.47776 33788 ft 471 kts 220°
2026-04-21 15:19 3.62771 9.43549 33788 ft 472 kts 220°
2026-04-21 15:19 3.57728 9.39317 33784 ft 473 kts 220°
2026-04-21 15:20 3.52688 9.35087 33787 ft 473 kts 220°
2026-04-21 15:20 3.47635 9.30849 33781 ft 473 kts 220°
2026-04-21 15:21 3.42591 9.26618 33778 ft 473 kts 220°
2026-04-21 15:21 3.37576 9.22411 33785 ft 473 kts 220°
2026-04-21 15:22 3.32532 9.18182 33784 ft 473 kts 220°
2026-04-21 15:22 3.27486 9.13951 33782 ft 473 kts 220°
2026-04-21 15:23 3.22446 9.09725 33785 ft 473 kts 220°
2026-04-21 15:23 3.17426 9.05517 33784 ft 473 kts 220°
2026-04-21 15:24 3.12364 9.01274 33785 ft 474 kts 220°
2026-04-21 15:24 3.07301 8.97031 33784 ft 475 kts 219°
2026-04-21 15:25 3.02210 8.92765 33783 ft 477 kts 219°
2026-04-21 15:25 2.97122 8.88502 33785 ft 478 kts 219°
2026-04-21 15:26 2.92023 8.84230 33783 ft 479 kts 219°
2026-04-21 15:26 2.86940 8.79973 33790 ft 480 kts 219°
2026-04-21 15:27 2.81812 8.75677 33784 ft 480 kts 220°
2026-04-21 15:27 2.76689 8.71387 33785 ft 480 kts 220°
2026-04-21 15:28 2.71570 8.67099 33784 ft 480 kts 220°
2026-04-21 15:28 2.66445 8.62807 33785 ft 479 kts 220°